Regional Weather Roundup
Issued by NWS

Home | Current Version | Previous Version | Text Only | Print | Product List | Glossary On
Versions: 1 2 3 4 5 6 7 8 9 10 11 12 13 14 15 16 17 18 19 20 21 22 23 24 25 26 27 28 29 30 31 32 33 34 35 36 37 38 39 40 41 42 43 44 45 46 47 48 49 50
000
ASUS43 KLOT 260709
RWRIL

ILLINOIS REGIONAL WEATHER ROUNDUP
NATIONAL WEATHER SERVICE CHICAGO/ROMEOVILLE IL
200 AM CDT SUN MAY 26 2019

NOTE: "FAIR" INDICATES FEW OR NO CLOUDS BELOW 12,000 FEET WITH NO
SIGNIFICANT WEATHER AND/OR OBSTRUCTIONS TO VISIBILITY.

* THESE STATIONS ARE NOT UNDER NWS QUALITY CONTROL. THEY ALSO MAY NOT
  REPORT WEATHER SUCH AS PRECIPITATION OR FOG.

ILZ001-002-007-009-015-016-024-260800-
NORTHWEST ILLINOIS

CITY           SKY/WX    TMP DP  RH WIND       PRES   REMARKS
MOLINE         FAIR      66  64  93 SW3       29.95S
STERLING*      FAIR      65  64  97 CALM      29.95F
SAVANNA*       FAIR      66  64  94 CALM      29.94F
$$

ILZ003-004-008-010-011-017-018-260800-
NORTH CENTRAL ILLINOIS

CITY           SKY/WX    TMP DP  RH WIND       PRES   REMARKS
ROCKFORD       CLOUDY    67  64  90 S3        29.96F
FREEPORT*      MOCLDY    64  64  99 CALM      29.96F
ROCHELLE*      FAIR      64  62  93 CALM      29.95F
DE KALB*       FAIR      65  59  82 W3        29.96F
PERU*          FAIR      69  63  83 SW8       29.97F
$$

ILZ005-006-012>014-019>023-260800-
NORTHEAST ILLINOIS

CITY           SKY/WX    TMP DP  RH WIND       PRES   REMARKS
CHICAGO-OHARE  MOCLDY    72  64  76 W6        29.93F
CHICAGO-MIDWAY MOCLDY    73  66  78 W6        29.95F
AURORA         FAIR      67  61  81 SW5       29.95F
LANSING*       RAIN      69  67  95 CALM      29.97F
JOLIET*        FAIR      69  69 100 S3        29.95F
WAUKEGAN       MOCLDY    66  61  84 NW3       29.93F
DUPAGE AIRPORT FAIR      68  60  75 SW5       29.95F
KANKAKEE*      TSTM      72  66  82 SW18G25   29.99S
WHEELING       MOCLDY    70  63  78 CALM      29.95F
MORRIS*        FAIR      71  64  78 SW9G23    29.92F
ROMEOVILLE*    FAIR      68  67  94 CALM      29.96F
NORTHERLY ISL    N/A     73  62  68 W7          N/A
$$

LMZ740>746-260800-
SOUTHERN LAKE MICHIGAN

STATION/POSITION SKY/WX   TEMP    WIND        PRES    VSBY  WAVE
                          AIR SEA DIR/SP/G                  HT/PER
                          (F)     (DEG/KT/KT) (MB)    (MI)  (FT/S)
SOUTHERN BUOY              48 40  250/  8/  8 1014.9R         1
WINTHROP HARBOR            57 49  300/  4/  4   N/A           0
WAUKEGAN HARBOR            60 51  210/  4/  4   N/A           0
WILMETTE HARBOR                   270/  2/  2 1016.5          0
HARRISON CRIB                     280/  9/  9   N/A
NORTHERLY ISL              73     240/  4/  7   N/A
CALUMET HARBOR             73     250/  1/  4 1013.7F
BURNS HARBOR               71     250/  3/  5 1014.6F
MICHIGAN CITY              72     210/  2/  2   N/A
MICHIGAN CITY 6N           64 55  230/  2/  4   N/A           1
ST. JOSEPH                 58 54   80/  2/  4 1014.4          1
$$

ILZ025>027-034>036-040-047-049-050-058-095>099-260800-
WEST-CENTRAL ILLINOIS

CITY           SKY/WX    TMP DP  RH WIND       PRES   REMARKS
QUINCY         CLOUDY    66  64  93 S6        30.02S
GALESBURG*     FAIR      66  62  87 SW10      30.00R
MACOMB*        RAIN      64  64  97 SW15      30.00S
JACKSONVILLE*  LGT RAIN  65  63  94 NW3       30.06R
PITTSFIELD*    CLOUDY    66  66  98 CALM      30.05F
$$

ILZ028>032-037-038-041>044-048-051>054-059>061-260800-
CENTRAL ILLINOIS

CITY           SKY/WX    TMP DP  RH WIND       PRES   REMARKS
PONTIAC        RAIN      68  63  83 SW17G24   30.01F
BLOOMINGTON    LGT RAIN  65  62  90 N3        30.02F
DECATUR        LGT RAIN  65  63  93 N15       30.03F
PEORIA         RAIN      66  63  90 S9        29.97F
LACON*         FAIR      66  62  86 CALM      29.97R
LINCOLN*       LGT RAIN  66  65  96 E3        30.02F
SPRINGFIELD    CLOUDY    65  64  97 E3        30.03S
TAYLORVILLE    CLOUDY    64  63  94 CALM      30.05F
$$

ILZ033-039-045-046-055>057-062-063-260800-
EAST-CENTRAL ILLINOIS

CITY           SKY/WX    TMP DP  RH WIND       PRES   REMARKS
CHAMPAIGN      TSTM      65  64  97 NW15G28   30.05S
DANVILLE*      HVY RAIN  74  69  81 S12       29.95F
RANTOUL*       TSTM      64  64  99 NW13G22   30.05R
MATTOON        LGT RAIN  76  68  76 W25G40    30.07R
PARIS*         FAIR      76  71  85 SW14      30.01S THUNDER
$$

ILZ079-100>102-260800-
SOUTHWEST ILLINOIS

CITY           SKY/WX    TMP DP  RH WIND       PRES   REMARKS
ALTON          CLOUDY    76  71  84 SW5       30.03R
BELLEVILLE     CLOUDY    73  70  90 SW3       30.01F
CAHOKIA*       MOCLDY    77  68  73 VRB3      30.01F
SPARTA*        CLOUDY    73  70  88 CALM      30.04S
$$

ILZ064>066-069>071-074>076-080>082-084>086-088>090-092>094-260800-
SOUTH-CENTRAL ILLINOIS

CITY           SKY/WX    TMP DP  RH WIND       PRES   REMARKS
CARBONDALE     FAIR      69  68  96 SW3       30.04S
CAIRO*         FAIR      75  67  75 S5        30.04S
EFFINGHAM*     MOCLDY    76  69  80 SW5       30.05R
MARION         FAIR      71  67  89 CALM      30.05S
MT. VERNON     FAIR      71  69  93 SW5       30.04S
CENTRALIA*     CLOUDY    74  71  90 SW3       30.03S
SALEM*         FAIR      75  70  84 SW5       30.04S
METROPOLIS*    FAIR      71  67  87 CALM      30.05S
$$

ILZ067-068-072-073-078-083-087-091-260800-
SOUTHEAST ILLINOIS

CITY           SKY/WX    TMP DP  RH WIND       PRES   REMARKS
LAWRENCEVILLE  FAIR      73  68  84 SW7       30.03S
FLORA*         FAIR      73  70  91 CALM      30.04R
FAIRFIELD*     FAIR      70  70  99 CALM      30.04R
HARRISBURG*    FAIR      70  70 100 CALM      30.05S
ROBINSON*      FAIR      74  68  81 SW9       30.03S
CARMI*         FAIR      68  68 100 S3        30.03F
$$

ABBREVIATIONS USED IN REMARKS
   TC - TEMPERATURE IN CELSIUS
  WCI - WIND CHILL INDEX
   HX - HEAT INDEX
  VSB - VISIBILITY
$$




USA.gov is the U.S. government's official web portal to all federal, state and local government web resources and services.